Погода в Жепине

Польша     52°20′49″N   14°49′28″E
темп.,
°C
ветер,
м/с
пор.,
м/с
влажн.,
%
обл.,
%
осадки,
мм/ч
давл.,
гПа
погр.,
м
28 февраля, вс
вс2801:00+2з379563 0.0 1038197
04:00+2зюз379272 0.0 1037281
07:00+1з389552 0.0 1037244
10:00+5з368319 0.0 1036384
13:00+9зсз467210 0.0 1035564
16:00+9сз46710 0.0 1034766
19:00+5сз23880 0.0 103528
22:00+4сз22900 0.0 103523
1 марта, пн
пн101:00+2сз12910 0.0 103622
04:00+1сз11920 0.0 103522
07:00+1з11920 0.0 103622
10:00+6з12730 0.0 1036282
13:00+10з23600 0.0 1036640
16:00+10зсз23620 0.0 1034642
19:00+6сз12800 0.0 103522
22:00+4з12810 0.0 103522
2 марта, вт
вт201:00+3з11840 0.0 103522
04:00+2з12870 0.0 103422
07:00+1зюз12880 0.0 103422
10:00+7зсз23630 0.0 1034262
13:00+11зсз22480 0.0 1034517
16:00+11сз12540 0.0 1032477
19:00+6сз11730 0.0 103222
22:00+5зсз00780 0.0 103322
3 марта, ср
ср301:00+4ю00820 0.0 103222
04:00+3ю11840 0.0 103122
07:00+2ю11830 0.0 103122
10:00+8ю12630 0.0 1031237
13:00+12ююз225413 0.0 1029555
16:00+12юз235724 0.0 1027645
19:00+7ююз227712 0.0 102522
22:00+6ююз228375 0.0 102426
4 марта, чт
чт401:00+5юз238786 0.0 102247
04:00+4юз239269 0.0 102062
07:00+4зюз259483 0.0 1018107
10:00+9зюз367660 0.0 1017448
13:00+12зюз466848 0.0 1015987
16:00+8зюз5990100 1.4 1013614
19:00+7зсз51092100 5.6 1012783
22:00+7зсз5108397 0.3 1012750